datetime,flow
1988-10-01,73.0
1988-10-02,75.0
1988-10-03,76.0
1988-10-04,75.0
1988-10-05,75.0
1988-10-06,75.0
1988-10-07,73.0
1988-10-08,73.0
1988-10-09,73.0
1988-10-10,74.0
1988-10-11,71.0
1988-10-12,79.0
1988-10-13,100.0
1988-10-14,107.0
1988-10-15,110.0
1988-10-16,125.0
1988-10-17,116.0
1988-10-18,113.0
1988-10-19,110.0
1988-10-20,104.0
1988-10-21,104.0
1988-10-22,93.0
1988-10-23,87.0
1988-10-24,87.0
1988-10-25,85.0
1988-10-26,76.0
1988-10-27,71.0
1988-10-28,71.0
1988-10-29,71.0
1988-10-30,71.0
1988-10-31,81.0
1988-11-01,89.0
1988-11-02,90.0
1988-11-03,90.0
1988-11-04,83.0
1988-11-05,73.0
1988-11-06,69.0
1988-11-07,71.0
1988-11-08,73.0
1988-11-09,72.0
1988-11-10,76.0
1988-11-11,88.0
1988-11-12,95.0
1988-11-13,93.0
1988-11-14,93.0
1988-11-15,93.0
1988-11-16,93.0
1988-11-17,93.0
1988-11-18,83.0
1988-11-19,75.0
1988-11-20,73.0
1988-11-21,73.0
1988-11-22,72.0
1988-11-23,71.0
1988-11-24,73.0
1988-11-25,75.0
1988-11-26,88.0
1988-11-27,95.0
1988-11-28,95.0
1988-11-29,79.0
1988-11-30,71.0
1988-12-01,73.0
1988-12-02,73.0
1988-12-03,71.0
1988-12-04,71.0
1988-12-05,73.0
1988-12-06,73.0
1988-12-07,73.0
1988-12-08,73.0
1988-12-09,73.0
1988-12-10,73.0
1988-12-11,71.0
1988-12-12,71.0
1988-12-13,71.0
1988-12-14,73.0
1988-12-15,73.0
1988-12-16,75.0
1988-12-17,71.0
1988-12-18,73.0
1988-12-19,73.0
1988-12-20,75.0
1988-12-21,73.0
1988-12-22,73.0
1988-12-23,75.0
1988-12-24,75.0
1988-12-25,73.0
1988-12-26,73.0
1988-12-27,73.0
1988-12-28,71.0
1988-12-29,71.0
1988-12-30,69.0
1988-12-31,63.0
1989-01-01,63.0
1989-01-02,63.0
1989-01-03,65.0
1989-01-04,63.0
1989-01-05,63.0
1989-01-06,63.0
1989-01-07,60.0
1989-01-08,57.0
1989-01-09,57.0
1989-01-10,58.0
1989-01-11,47.0
1989-01-12,40.0
1989-01-13,40.0
1989-01-14,49.0
1989-01-15,56.0
1989-01-16,57.0
1989-01-17,56.0
1989-01-18,57.0
1989-01-19,57.0
1989-01-20,56.0
1989-01-21,57.0
1989-01-22,57.0
1989-01-23,57.0
1989-01-24,57.0
1989-01-25,58.0
1989-01-26,57.0
1989-01-27,57.0
1989-01-28,57.0
1989-01-29,57.0
1989-01-30,56.0
1989-01-31,57.0
1989-02-01,58.0
1989-02-02,56.0
1989-02-03,57.0
1989-02-04,58.0
1989-02-05,57.0
1989-02-06,58.0
1989-02-07,57.0
1989-02-08,57.0
1989-02-09,57.0
1989-02-10,58.0
1989-02-11,59.0
1989-02-12,59.0
1989-02-13,59.0
1989-02-14,59.0
1989-02-15,56.0
1989-02-16,57.0
1989-02-17,57.0
1989-02-18,57.0
1989-02-19,57.0
1989-02-20,57.0
1989-02-21,62.0
1989-02-22,62.0
1989-02-23,63.0
1989-02-24,63.0
1989-02-25,63.0
1989-02-26,63.0
1989-02-27,63.0
1989-02-28,63.0
1989-03-01,63.0
1989-03-02,63.0
1989-03-03,63.0
1989-03-04,63.0
1989-03-05,61.0
1989-03-06,61.0
1989-03-07,62.0
1989-03-08,64.0
1989-03-09,65.0
1989-03-10,81.0
1989-03-11,91.0
1989-03-12,91.0
1989-03-13,89.0
1989-03-14,89.0
1989-03-15,89.0
1989-03-16,90.0
1989-03-17,82.0
1989-03-18,75.0
1989-03-19,76.0
1989-03-20,77.0
1989-03-21,75.0
1989-03-22,76.0
1989-03-23,77.0
1989-03-24,75.0
1989-03-25,75.0
1989-03-26,76.0
1989-03-27,77.0
1989-03-28,77.0
1989-03-29,77.0
1989-03-30,77.0
1989-03-31,77.0
1989-04-01,77.0
1989-04-02,77.0
1989-04-03,78.0
1989-04-04,77.0
1989-04-05,75.0
1989-04-06,76.0
1989-04-07,78.0
1989-04-08,77.0
1989-04-09,78.0
1989-04-10,76.0
1989-04-11,78.0
1989-04-12,79.0
1989-04-13,85.0
1989-04-14,124.0
1989-04-15,141.0
1989-04-16,143.0
1989-04-17,148.0
1989-04-18,142.0
1989-04-19,150.0
1989-04-20,193.0
1989-04-21,215.0
1989-04-22,215.0
1989-04-23,211.0
1989-04-24,221.0
1989-04-25,227.0
1989-04-26,222.0
1989-04-27,187.0
1989-04-28,152.0
1989-04-29,143.0
1989-04-30,144.0
1989-05-01,146.0
1989-05-02,118.0
1989-05-03,102.0
1989-05-04,102.0
1989-05-05,94.0
1989-05-06,89.0
1989-05-07,89.0
1989-05-08,105.0
1989-05-09,164.0
1989-05-10,191.0
1989-05-11,239.0
1989-05-12,194.0
1989-05-13,194.0
1989-05-14,191.0
1989-05-15,169.0
1989-05-16,159.0
1989-05-17,157.0
1989-05-18,119.0
1989-05-19,126.0
1989-05-20,153.0
1989-05-21,163.0
1989-05-22,170.0
1989-05-23,167.0
1989-05-24,175.0
1989-05-25,187.0
1989-05-26,193.0
1989-05-27,190.0
1989-05-28,193.0
1989-05-29,195.0
1989-05-30,195.0
1989-05-31,193.0
1989-06-01,197.0
1989-06-02,195.0
1989-06-03,195.0
1989-06-04,199.0
1989-06-05,202.0
1989-06-06,185.0
1989-06-07,197.0
1989-06-08,188.0
1989-06-09,173.0
1989-06-10,174.0
1989-06-11,175.0
1989-06-12,175.0
1989-06-13,169.0
1989-06-14,165.0
1989-06-15,170.0
1989-06-16,159.0
1989-06-17,130.0
1989-06-18,136.0
1989-06-19,178.0
1989-06-20,292.0
1989-06-21,264.0
1989-06-22,245.0
1989-06-23,253.0
1989-06-24,233.0
1989-06-25,231.0
1989-06-26,233.0
1989-06-27,226.0
1989-06-28,216.0
1989-06-29,207.0
1989-06-30,195.0
1989-07-01,189.0
1989-07-02,179.0
1989-07-03,164.0
1989-07-04,160.0
1989-07-05,170.0
1989-07-06,185.0
1989-07-07,192.0
1989-07-08,203.0
1989-07-09,213.0
1989-07-10,196.0
1989-07-11,212.0
1989-07-12,222.0
1989-07-13,227.0
1989-07-14,205.0
1989-07-15,173.0
1989-07-16,154.0
1989-07-17,135.0
1989-07-18,134.0
1989-07-19,134.0
1989-07-20,135.0
1989-07-21,135.0
1989-07-22,134.0
1989-07-23,134.0
1989-07-24,135.0
1989-07-25,137.0
1989-07-26,219.0
1989-07-27,257.0
1989-07-28,260.0
1989-07-29,255.0
1989-07-30,259.0
1989-07-31,256.0
1989-08-01,242.0
1989-08-02,252.0
1989-08-03,253.0
1989-08-04,241.0
1989-08-05,225.0
1989-08-06,211.0
1989-08-07,207.0
1989-08-08,187.0
1989-08-09,177.0
1989-08-10,177.0
1989-08-11,183.0
1989-08-12,196.0
1989-08-13,199.0
1989-08-14,196.0
1989-08-15,195.0
1989-08-16,196.0
1989-08-17,199.0
1989-08-18,199.0
1989-08-19,204.0
1989-08-20,199.0
1989-08-21,186.0
1989-08-22,163.0
1989-08-23,140.0
1989-08-24,132.0
1989-08-25,144.0
1989-08-26,148.0
1989-08-27,145.0
1989-08-28,144.0
1989-08-29,156.0
1989-08-30,162.0
1989-08-31,179.0
1989-09-01,188.0
1989-09-02,182.0
1989-09-03,177.0
1989-09-04,174.0
1989-09-05,110.0
1989-09-06,80.0
1989-09-07,82.0
1989-09-08,86.0
1989-09-09,88.0
1989-09-10,92.0
1989-09-11,79.0
1989-09-12,69.0
1989-09-13,71.0
1989-09-14,75.0
1989-09-15,78.0
1989-09-16,80.0
1989-09-17,83.0
1989-09-18,85.0
1989-09-19,85.0
1989-09-20,87.0
1989-09-21,85.0
1989-09-22,87.0
1989-09-23,96.0
1989-09-24,101.0
1989-09-25,88.0
1989-09-26,84.0
1989-09-27,90.0
1989-09-28,94.0
1989-09-29,95.0
1989-09-30,85.0
1989-10-01,98.0
1989-10-02,87.0
1989-10-03,58.0
1989-10-04,60.0
1989-10-05,57.0
1989-10-06,56.0
1989-10-07,58.0
1989-10-08,58.0
1989-10-09,59.0
1989-10-10,67.0
1989-10-11,75.0
1989-10-12,70.0
1989-10-13,66.0
1989-10-14,65.0
1989-10-15,62.0
1989-10-16,64.0
1989-10-17,62.0
1989-10-18,61.0
1989-10-19,60.0
1989-10-20,58.0
1989-10-21,57.0
1989-10-22,57.0
1989-10-23,54.0
1989-10-24,53.0
1989-10-25,50.0
1989-10-26,52.0
1989-10-27,52.0
1989-10-28,54.0
1989-10-29,51.0
1989-10-30,52.0
1989-10-31,42.0
1989-11-01,49.0
1989-11-02,47.0
1989-11-03,47.0
1989-11-04,45.0
1989-11-05,41.0
1989-11-06,42.0
1989-11-07,43.0
1989-11-08,45.0
1989-11-09,44.0
1989-11-10,44.0
1989-11-11,44.0
1989-11-12,45.0
1989-11-13,43.0
1989-11-14,44.0
1989-11-15,43.0
1989-11-16,41.0
1989-11-17,41.0
1989-11-18,41.0
1989-11-19,41.0
1989-11-20,41.0
1989-11-21,41.0
1989-11-22,41.0
1989-11-23,42.0
1989-11-24,43.0
1989-11-25,43.0
1989-11-26,43.0
1989-11-27,43.0
1989-11-28,43.0
1989-11-29,43.0
1989-11-30,41.0
1989-12-01,41.0
1989-12-02,41.0
1989-12-03,41.0
1989-12-04,41.0
1989-12-05,41.0
1989-12-06,41.0
1989-12-07,41.0
1989-12-08,41.0
1989-12-09,41.0
1989-12-10,43.0
1989-12-11,43.0
1989-12-12,44.0
1989-12-13,42.0
1989-12-14,41.0
1989-12-15,41.0
1989-12-16,41.0
1989-12-17,41.0
1989-12-18,41.0
1989-12-19,41.0
1989-12-20,42.0
1989-12-21,43.0
1989-12-22,41.0
1989-12-23,41.0
1989-12-24,41.0
1989-12-25,41.0
1989-12-26,42.0
1989-12-27,44.0
1989-12-28,44.0
1989-12-29,44.0
1989-12-30,44.0
1989-12-31,44.0
1990-01-01,44.0
1990-01-02,44.0
1990-01-03,44.0
1990-01-04,44.0
1990-01-05,43.0
1990-01-06,43.0
1990-01-07,43.0
1990-01-08,43.0
1990-01-09,43.0
1990-01-10,43.0
1990-01-11,43.0
1990-01-12,43.0
1990-01-13,43.0
1990-01-14,43.0
1990-01-15,43.0
1990-01-16,43.0
1990-01-17,43.0
1990-01-18,43.0
1990-01-19,43.0
1990-01-20,40.0
1990-01-21,40.0
1990-01-22,40.0
1990-01-23,40.0
1990-01-24,40.0
1990-01-25,41.0
1990-01-26,41.0
1990-01-27,40.0
1990-01-28,40.0
1990-01-29,40.0
1990-01-30,40.0
1990-01-31,40.0
1990-02-01,40.0
1990-02-02,40.0
1990-02-03,40.0
1990-02-04,40.0
1990-02-05,40.0
1990-02-06,40.0
1990-02-07,40.0
1990-02-08,40.0
1990-02-09,40.0
1990-02-10,40.0
1990-02-11,40.0
1990-02-12,40.0
1990-02-13,41.0
1990-02-14,41.0
1990-02-15,41.0
1990-02-16,41.0
1990-02-17,40.0
1990-02-18,40.0
1990-02-19,40.0
1990-02-20,41.0
1990-02-21,41.0
1990-02-22,41.0
1990-02-23,41.0
1990-02-24,41.0
1990-02-25,41.0
1990-02-26,41.0
1990-02-27,41.0
1990-02-28,41.0
1990-03-01,41.0
1990-03-02,40.0
1990-03-03,40.0
1990-03-04,40.0
1990-03-05,40.0
1990-03-06,40.0
1990-03-07,40.0
1990-03-08,40.0
1990-03-09,40.0
1990-03-10,40.0
1990-03-11,39.0
1990-03-12,39.0
1990-03-13,39.0
1990-03-14,39.0
1990-03-15,39.0
1990-03-16,39.0
1990-03-17,39.0
1990-03-18,39.0
1990-03-19,39.0
1990-03-20,39.0
1990-03-21,39.0
1990-03-22,39.0
1990-03-23,39.0
1990-03-24,39.0
1990-03-25,39.0
1990-03-26,39.0
1990-03-27,39.0
1990-03-28,39.0
1990-03-29,38.0
1990-03-30,38.0
1990-03-31,38.0
1990-04-01,38.0
1990-04-02,38.0
1990-04-03,38.0
1990-04-04,37.0
1990-04-05,36.0
1990-04-06,36.0
1990-04-07,36.0
1990-04-08,38.0
1990-04-09,38.0
1990-04-10,38.0
1990-04-11,39.0
1990-04-12,39.0
1990-04-13,38.0
1990-04-14,38.0
1990-04-15,38.0
1990-04-16,38.0
1990-04-17,39.0
1990-04-18,39.0
1990-04-19,39.0
1990-04-20,37.0
1990-04-21,34.0
1990-04-22,34.0
1990-04-23,34.0
1990-04-24,34.0
1990-04-25,35.0
1990-04-26,35.0
1990-04-27,35.0
1990-04-28,35.0
1990-04-29,35.0
1990-04-30,35.0
1990-05-01,36.0
1990-05-02,36.0
1990-05-03,54.0
1990-05-04,132.0
1990-05-05,143.0
1990-05-06,113.0
1990-05-07,114.0
1990-05-08,96.0
1990-05-09,90.0
1990-05-10,127.0
1990-05-11,140.0
1990-05-12,135.0
1990-05-13,122.0
1990-05-14,150.0
1990-05-15,174.0
1990-05-16,183.0
1990-05-17,189.0
1990-05-18,202.0
1990-05-19,218.0
1990-05-20,232.0
1990-05-21,232.0
1990-05-22,265.0
1990-05-23,318.0
1990-05-24,393.0
1990-05-25,401.0
1990-05-26,392.0
1990-05-27,375.0
1990-05-28,373.0
1990-05-29,411.0
1990-05-30,377.0
1990-05-31,308.0
1990-06-01,276.0
1990-06-02,249.0
1990-06-03,255.0
1990-06-04,351.0
1990-06-05,525.0
1990-06-06,683.0
1990-06-07,718.0
1990-06-08,812.0
1990-06-09,790.0
1990-06-10,806.0
1990-06-11,909.0
1990-06-12,911.0
1990-06-13,835.0
1990-06-14,751.0
1990-06-15,715.0
1990-06-16,707.0
1990-06-17,572.0
1990-06-18,406.0
1990-06-19,390.0
1990-06-20,410.0
1990-06-21,412.0
1990-06-22,410.0
1990-06-23,393.0
1990-06-24,387.0
1990-06-25,388.0
1990-06-26,373.0
1990-06-27,365.0
1990-06-28,372.0
1990-06-29,372.0
1990-06-30,348.0
1990-07-01,319.0
1990-07-02,361.0
1990-07-03,381.0
1990-07-04,381.0
1990-07-05,380.0
1990-07-06,378.0
1990-07-07,365.0
1990-07-08,371.0
1990-07-09,348.0
1990-07-10,337.0
1990-07-11,319.0
1990-07-12,311.0
1990-07-13,307.0
1990-07-14,308.0
1990-07-15,298.0
1990-07-16,309.0
1990-07-17,320.0
1990-07-18,340.0
1990-07-19,354.0
1990-07-20,355.0
1990-07-21,355.0
1990-07-22,355.0
1990-07-23,356.0
1990-07-24,355.0
1990-07-25,359.0
1990-07-26,359.0
1990-07-27,358.0
1990-07-28,360.0
1990-07-29,361.0
1990-07-30,362.0
1990-07-31,363.0
1990-08-01,364.0
1990-08-02,362.0
1990-08-03,355.0
1990-08-04,340.0
1990-08-05,340.0
1990-08-06,333.0
1990-08-07,318.0
1990-08-08,320.0
1990-08-09,323.0
1990-08-10,338.0
1990-08-11,349.0
1990-08-12,347.0
1990-08-13,338.0
1990-08-14,319.0
1990-08-15,274.0
1990-08-16,204.0
1990-08-17,177.0
1990-08-18,179.0
1990-08-19,177.0
1990-08-20,193.0
1990-08-21,200.0
1990-08-22,191.0
1990-08-23,161.0
1990-08-24,143.0
1990-08-25,138.0
1990-08-26,138.0
1990-08-27,137.0
1990-08-28,134.0
1990-08-29,158.0
1990-08-30,188.0
1990-08-31,196.0
1990-09-01,199.0
1990-09-02,200.0
1990-09-03,201.0
1990-09-04,170.0
1990-09-05,137.0
1990-09-06,116.0
1990-09-07,99.0
1990-09-08,82.0
1990-09-09,82.0
1990-09-10,84.0
1990-09-11,86.0
1990-09-12,86.0
1990-09-13,90.0
1990-09-14,90.0
1990-09-15,90.0
1990-09-16,89.0
1990-09-17,86.0
1990-09-18,83.0
1990-09-19,81.0
1990-09-20,82.0
1990-09-21,81.0
1990-09-22,81.0
1990-09-23,81.0
1990-09-24,82.0
1990-09-25,81.0
1990-09-26,82.0
1990-09-27,79.0
1990-09-28,79.0
1990-09-29,77.0
1990-09-30,78.0
1990-10-01,78.0
1990-10-02,79.0
1990-10-03,58.0
1990-10-04,41.0
1990-10-05,41.0
1990-10-06,41.0
1990-10-07,42.0
1990-10-08,43.0
1990-10-09,40.0
1990-10-10,53.0
1990-10-11,74.0
1990-10-12,72.0
1990-10-13,72.0
1990-10-14,74.0
1990-10-15,75.0
1990-10-16,78.0
1990-10-17,76.0
1990-10-18,76.0
1990-10-19,64.0
1990-10-20,43.0
1990-10-21,41.0
1990-10-22,42.0
1990-10-23,43.0
1990-10-24,44.0
1990-10-25,45.0
1990-10-26,45.0
1990-10-27,45.0
1990-10-28,46.0
1990-10-29,46.0
1990-10-30,49.0
1990-10-31,50.0
1990-11-01,50.0
1990-11-02,50.0
1990-11-03,50.0
1990-11-04,49.0
1990-11-05,49.0
1990-11-06,49.0
1990-11-07,49.0
1990-11-08,68.0
1990-11-09,78.0
1990-11-10,77.0
1990-11-11,77.0
1990-11-12,76.0
1990-11-13,77.0
1990-11-14,78.0
1990-11-15,87.0
1990-11-16,95.0
1990-11-17,98.0
1990-11-18,95.0
1990-11-19,97.0
1990-11-20,109.0
1990-11-21,118.0
1990-11-22,123.0
1990-11-23,121.0
1990-11-24,116.0
1990-11-25,113.0
1990-11-26,113.0
1990-11-27,110.0
1990-11-28,141.0
1990-11-29,153.0
1990-11-30,139.0
1990-12-01,124.0
1990-12-02,120.0
1990-12-03,118.0
1990-12-04,117.0
1990-12-05,116.0
1990-12-06,116.0
1990-12-07,115.0
1990-12-08,113.0
1990-12-09,109.0
1990-12-10,93.0
1990-12-11,93.0
1990-12-12,109.0
1990-12-13,112.0
1990-12-14,110.0
1990-12-15,107.0
1990-12-16,107.0
1990-12-17,87.0
1990-12-18,77.0
1990-12-19,77.0
1990-12-20,77.0
1990-12-21,75.0
1990-12-22,75.0
1990-12-23,76.0
1990-12-24,77.0
1990-12-25,77.0
1990-12-26,77.0
1990-12-27,77.0
1990-12-28,78.0
1990-12-29,77.0
1990-12-30,77.0
1990-12-31,77.0
1991-01-01,77.0
1991-01-02,77.0
1991-01-03,77.0
1991-01-04,78.0
1991-01-05,77.0
1991-01-06,77.0
1991-01-07,76.0
1991-01-08,76.0
1991-01-09,75.0
1991-01-10,75.0
1991-01-11,75.0
1991-01-12,76.0
1991-01-13,76.0
1991-01-14,77.0
1991-01-15,76.0
1991-01-16,76.0
1991-01-17,75.0
1991-01-18,74.0
1991-01-19,75.0
1991-01-20,76.0
1991-01-21,76.0
1991-01-22,76.0
1991-01-23,76.0
1991-01-24,77.0
1991-01-25,77.0
1991-01-26,76.0
1991-01-27,77.0
1991-01-28,77.0
1991-01-29,77.0
1991-01-30,76.0
1991-01-31,76.0
1991-02-01,76.0
1991-02-02,77.0
1991-02-03,76.0
1991-02-04,77.0
1991-02-05,77.0
1991-02-06,77.0
1991-02-07,78.0
1991-02-08,78.0
1991-02-09,78.0
1991-02-10,77.0
1991-02-11,76.0
1991-02-12,77.0
1991-02-13,78.0
1991-02-14,77.0
1991-02-15,76.0
1991-02-16,76.0
1991-02-17,78.0
1991-02-18,78.0
1991-02-19,77.0
1991-02-20,77.0
1991-02-21,79.0
1991-02-22,78.0
1991-02-23,78.0
1991-02-24,78.0
1991-02-25,78.0
1991-02-26,77.0
1991-02-27,78.0
1991-02-28,79.0
1991-03-01,79.0
1991-03-02,78.0
1991-03-03,79.0
1991-03-04,79.0
1991-03-05,81.0
1991-03-06,75.0
1991-03-07,70.0
1991-03-08,71.0
1991-03-09,73.0
1991-03-10,73.0
1991-03-11,73.0
1991-03-12,74.0
1991-03-13,75.0
1991-03-14,74.0
1991-03-15,73.0
1991-03-16,75.0
1991-03-17,75.0
1991-03-18,76.0
1991-03-19,77.0
1991-03-20,77.0
1991-03-21,78.0
1991-03-22,73.0
1991-03-23,80.0
1991-03-24,82.0
1991-03-25,82.0
1991-03-26,81.0
1991-03-27,83.0
1991-03-28,83.0
1991-03-29,84.0
1991-03-30,87.0
1991-03-31,88.0
1991-04-01,90.0
1991-04-02,89.0
1991-04-03,106.0
1991-04-04,116.0
1991-04-05,167.0
1991-04-06,204.0
1991-04-07,206.0
1991-04-08,213.0
1991-04-09,277.0
1991-04-10,379.0
1991-04-11,453.0
1991-04-12,490.0
1991-04-13,490.0
1991-04-14,490.0
1991-04-15,491.0
1991-04-16,490.0
1991-04-17,485.0
1991-04-18,482.0
1991-04-19,479.0
1991-04-20,484.0
1991-04-21,484.0
1991-04-22,477.0
1991-04-23,477.0
1991-04-24,480.0
1991-04-25,478.0
1991-04-26,474.0
1991-04-27,472.0
1991-04-28,471.0
1991-04-29,476.0
1991-04-30,473.0
1991-05-01,479.0
1991-05-02,473.0
1991-05-03,381.0
1991-05-04,330.0
1991-05-05,329.0
1991-05-06,327.0
1991-05-07,326.0
1991-05-08,324.0
1991-05-09,321.0
1991-05-10,322.0
1991-05-11,321.0
1991-05-12,313.0
1991-05-13,316.0
1991-05-14,316.0
1991-05-15,312.0
1991-05-16,311.0
1991-05-17,321.0
1991-05-18,322.0
1991-05-19,321.0
1991-05-20,318.0
1991-05-21,314.0
1991-05-22,318.0
1991-05-23,314.0
1991-05-24,315.0
1991-05-25,312.0
1991-05-26,316.0
1991-05-27,318.0
1991-05-28,314.0
1991-05-29,308.0
1991-05-30,303.0
1991-05-31,217.0
1991-06-01,179.0
1991-06-02,178.0
1991-06-03,178.0
1991-06-04,183.0
1991-06-05,186.0
1991-06-06,191.0
1991-06-07,194.0
1991-06-08,198.0
1991-06-09,195.0
1991-06-10,189.0
1991-06-11,186.0
1991-06-12,185.0
1991-06-13,131.0
1991-06-14,116.0
1991-06-15,148.0
1991-06-16,148.0
1991-06-17,151.0
1991-06-18,148.0
1991-06-19,162.0
1991-06-20,171.0
1991-06-21,203.0
1991-06-22,213.0
1991-06-23,242.0
1991-06-24,388.0
1991-06-25,365.0
1991-06-26,433.0
1991-06-27,444.0
1991-06-28,440.0
1991-06-29,489.0
1991-06-30,530.0
1991-07-01,541.0
1991-07-02,544.0
1991-07-03,482.0
1991-07-04,433.0
1991-07-05,410.0
1991-07-06,393.0
1991-07-07,372.0
1991-07-08,364.0
1991-07-09,389.0
1991-07-10,406.0
1991-07-11,430.0
1991-07-12,408.0
1991-07-13,363.0
1991-07-14,332.0
1991-07-15,311.0
1991-07-16,322.0
1991-07-17,325.0
1991-07-18,334.0
1991-07-19,360.0
1991-07-20,349.0
1991-07-21,341.0
1991-07-22,379.0
1991-07-23,380.0
1991-07-24,366.0
1991-07-25,307.0
1991-07-26,283.0
1991-07-27,321.0
1991-07-28,312.0
1991-07-29,260.0
1991-07-30,230.0
1991-07-31,234.0
1991-08-01,218.0
1991-08-02,208.0
1991-08-03,217.0
1991-08-04,218.0
1991-08-05,220.0
1991-08-06,218.0
1991-08-07,264.0
1991-08-08,293.0
1991-08-09,294.0
1991-08-10,295.0
1991-08-11,296.0
1991-08-12,296.0
1991-08-13,296.0
1991-08-14,297.0
1991-08-15,292.0
1991-08-16,296.0
1991-08-17,292.0
1991-08-18,290.0
1991-08-19,286.0
1991-08-20,284.0
1991-08-21,287.0
1991-08-22,292.0
1991-08-23,297.0
1991-08-24,293.0
1991-08-25,292.0
1991-08-26,285.0
1991-08-27,287.0
1991-08-28,285.0
1991-08-29,281.0
1991-08-30,279.0
1991-08-31,279.0
1991-09-01,280.0
1991-09-02,272.0
1991-09-03,271.0
1991-09-04,245.0
1991-09-05,231.0
1991-09-06,236.0
1991-09-07,233.0
1991-09-08,237.0
1991-09-09,237.0
1991-09-10,242.0
1991-09-11,241.0
1991-09-12,221.0
1991-09-13,225.0
1991-09-14,241.0
1991-09-15,248.0
1991-09-16,245.0
1991-09-17,235.0
1991-09-18,228.0
1991-09-19,229.0
1991-09-20,227.0
1991-09-21,230.0
1991-09-22,231.0
1991-09-23,234.0
1991-09-24,233.0
1991-09-25,233.0
1991-09-26,234.0
1991-09-27,234.0
1991-09-28,235.0
1991-09-29,234.0
1991-09-30,233.0
1991-10-01,240.0
1991-10-02,150.0
1991-10-03,102.0
1991-10-04,102.0
1991-10-05,100.0
1991-10-06,102.0
1991-10-07,103.0
1991-10-08,102.0
1991-10-09,105.0
1991-10-10,103.0
1991-10-11,103.0
1991-10-12,103.0
1991-10-13,103.0
1991-10-14,105.0
1991-10-15,104.0
1991-10-16,104.0
1991-10-17,101.0
1991-10-18,98.0
1991-10-19,99.0
1991-10-20,98.0
1991-10-21,98.0
1991-10-22,95.0
1991-10-23,93.0
1991-10-24,94.0
1991-10-25,102.0
1991-10-26,103.0
1991-10-27,103.0
1991-10-28,101.0
1991-10-29,98.0
1991-10-30,96.0
1991-10-31,97.0
1991-11-01,98.0
1991-11-02,97.0
1991-11-03,96.0
1991-11-04,95.0
1991-11-05,103.0
1991-11-06,98.0
1991-11-07,100.0
1991-11-08,102.0
1991-11-09,102.0
1991-11-10,103.0
1991-11-11,102.0
1991-11-12,98.0
1991-11-13,99.0
1991-11-14,96.0
1991-11-15,95.0
1991-11-16,95.0
1991-11-17,95.0
1991-11-18,96.0
1991-11-19,96.0
1991-11-20,96.0
1991-11-21,98.0
1991-11-22,98.0
1991-11-23,96.0
1991-11-24,93.0
1991-11-25,80.0
1991-11-26,76.0
1991-11-27,88.0
1991-11-28,92.0
1991-11-29,93.0
1991-11-30,92.0
1991-12-01,91.0
1991-12-02,90.0
1991-12-03,91.0
1991-12-04,92.0
1991-12-05,93.0
1991-12-06,91.0
1991-12-07,90.0
1991-12-08,91.0
1991-12-09,89.0
1991-12-10,89.0
1991-12-11,89.0
1991-12-12,88.0
1991-12-13,88.0
1991-12-14,90.0
1991-12-15,90.0
1991-12-16,90.0
1991-12-17,90.0
1991-12-18,90.0
1991-12-19,92.0
1991-12-20,91.0
1991-12-21,92.0
1991-12-22,90.0
1991-12-23,89.0
1991-12-24,90.0
1991-12-25,90.0
1991-12-26,91.0
1991-12-27,91.0
1991-12-28,90.0
1991-12-29,90.0
1991-12-30,90.0
1991-12-31,91.0
1992-01-01,91.0
1992-01-02,59.0
1992-01-03,39.0
1992-01-04,39.0
1992-01-05,40.0
1992-01-06,39.0
1992-01-07,40.0
1992-01-08,40.0
1992-01-09,39.0
1992-01-10,39.0
1992-01-11,39.0
1992-01-12,40.0
1992-01-13,40.0
1992-01-14,39.0
1992-01-15,39.0
1992-01-16,39.0
1992-01-17,39.0
1992-01-18,39.0
1992-01-19,39.0
1992-01-20,39.0
1992-01-21,39.0
1992-01-22,39.0
1992-01-23,39.0
1992-01-24,39.0
1992-01-25,39.0
1992-01-26,38.0
1992-01-27,37.0
1992-01-28,38.0
1992-01-29,37.0
1992-01-30,38.0
1992-01-31,39.0
1992-02-01,38.0
1992-02-02,39.0
1992-02-03,39.0
1992-02-04,39.0
1992-02-05,39.0
1992-02-06,39.0
1992-02-07,39.0
1992-02-08,39.0
1992-02-09,39.0
1992-02-10,39.0
1992-02-11,39.0
1992-02-12,39.0
1992-02-13,40.0
1992-02-14,40.0
1992-02-15,40.0
1992-02-16,40.0
1992-02-17,41.0
1992-02-18,41.0
1992-02-19,41.0
1992-02-20,41.0
1992-02-21,41.0
1992-02-22,41.0
1992-02-23,41.0
1992-02-24,41.0
1992-02-25,41.0
1992-02-26,43.0
1992-02-27,47.0
1992-02-28,51.0
1992-02-29,51.0
1992-03-01,50.0
1992-03-02,51.0
1992-03-03,49.0
1992-03-04,55.0
1992-03-05,59.0
1992-03-06,59.0
1992-03-07,57.0
1992-03-08,57.0
1992-03-09,57.0
1992-03-10,58.0
1992-03-11,58.0
1992-03-12,59.0
1992-03-13,58.0
1992-03-14,58.0
1992-03-15,59.0
1992-03-16,82.0
1992-03-17,95.0
1992-03-18,94.0
1992-03-19,94.0
1992-03-20,94.0
1992-03-21,95.0
1992-03-22,93.0
1992-03-23,93.0
1992-03-24,93.0
1992-03-25,107.0
1992-03-26,117.0
1992-03-27,116.0
1992-03-28,116.0
1992-03-29,118.0
1992-03-30,127.0
1992-03-31,132.0
1992-04-01,132.0
1992-04-02,177.0
1992-04-03,202.0
1992-04-04,201.0
1992-04-05,201.0
1992-04-06,212.0
1992-04-07,237.0
1992-04-08,269.0
1992-04-09,288.0
1992-04-10,317.0
1992-04-11,331.0
1992-04-12,324.0
1992-04-13,344.0
1992-04-14,373.0
1992-04-15,406.0
1992-04-16,434.0
1992-04-17,478.0
1992-04-18,491.0
1992-04-19,496.0
1992-04-20,496.0
1992-04-21,503.0
1992-04-22,526.0
1992-04-23,512.0
1992-04-24,507.0
1992-04-25,511.0
1992-04-26,518.0
1992-04-27,508.0
1992-04-28,491.0
1992-04-29,470.0
1992-04-30,444.0
1992-05-01,436.0
1992-05-02,438.0
1992-05-03,435.0
1992-05-04,422.0
1992-05-05,404.0
1992-05-06,403.0
1992-05-07,415.0
1992-05-08,420.0
1992-05-09,406.0
1992-05-10,396.0
1992-05-11,279.0
1992-05-12,206.0
1992-05-13,195.0
1992-05-14,192.0
1992-05-15,191.0
1992-05-16,189.0
1992-05-17,193.0
1992-05-18,193.0
1992-05-19,197.0
1992-05-20,201.0
1992-05-21,201.0
1992-05-22,200.0
1992-05-23,199.0
1992-05-24,199.0
1992-05-25,199.0
1992-05-26,201.0
1992-05-27,203.0
1992-05-28,209.0
1992-05-29,207.0
1992-05-30,208.0
1992-05-31,210.0
1992-06-01,216.0
1992-06-02,232.0
1992-06-03,256.0
1992-06-04,278.0
1992-06-05,285.0
1992-06-06,293.0
1992-06-07,296.0
1992-06-08,299.0
1992-06-09,313.0
1992-06-10,339.0
1992-06-11,339.0
1992-06-12,343.0
1992-06-13,348.0
1992-06-14,352.0
1992-06-15,376.0
1992-06-16,431.0
1992-06-17,478.0
1992-06-18,443.0
1992-06-19,421.0
1992-06-20,418.0
1992-06-21,430.0
1992-06-22,470.0
1992-06-23,506.0
1992-06-24,523.0
1992-06-25,516.0
1992-06-26,521.0
1992-06-27,518.0
1992-06-28,515.0
1992-06-29,513.0
1992-06-30,507.0
1992-07-01,509.0
1992-07-02,513.0
1992-07-03,500.0
1992-07-04,503.0
1992-07-05,507.0
1992-07-06,436.0
1992-07-07,335.0
1992-07-08,350.0
1992-07-09,364.0
1992-07-10,384.0
1992-07-11,400.0
1992-07-12,397.0
1992-07-13,425.0
1992-07-14,443.0
1992-07-15,440.0
1992-07-16,436.0
1992-07-17,384.0
1992-07-18,361.0
1992-07-19,370.0
1992-07-20,349.0
1992-07-21,304.0
1992-07-22,294.0
1992-07-23,307.0
1992-07-24,338.0
1992-07-25,391.0
1992-07-26,500.0
1992-07-27,636.0
1992-07-28,632.0
1992-07-29,595.0
1992-07-30,601.0
1992-07-31,618.0
1992-08-01,626.0
1992-08-02,629.0
1992-08-03,635.0
1992-08-04,646.0
1992-08-05,645.0
1992-08-06,649.0
1992-08-07,662.0
1992-08-08,660.0
1992-08-09,651.0
1992-08-10,660.0
1992-08-11,657.0
1992-08-12,653.0
1992-08-13,638.0
1992-08-14,627.0
1992-08-15,627.0
1992-08-16,622.0
1992-08-17,594.0
1992-08-18,577.0
1992-08-19,582.0
1992-08-20,563.0
1992-08-21,546.0
1992-08-22,546.0
1992-08-23,534.0
1992-08-24,412.0
1992-08-25,323.0
1992-08-26,260.0
1992-08-27,274.0
1992-08-28,275.0
1992-08-29,271.0
1992-08-30,268.0
1992-08-31,266.0
1992-09-01,265.0
1992-09-02,265.0
1992-09-03,264.0
1992-09-04,260.0
1992-09-05,254.0
1992-09-06,251.0
1992-09-07,250.0
1992-09-08,245.0
1992-09-09,189.0
1992-09-10,148.0
1992-09-11,149.0
1992-09-12,149.0
1992-09-13,148.0
1992-09-14,178.0
1992-09-15,210.0
1992-09-16,183.0
1992-09-17,179.0
1992-09-18,152.0
1992-09-19,136.0
1992-09-20,137.0
1992-09-21,132.0
1992-09-22,133.0
1992-09-23,141.0
1992-09-24,145.0